BIROS

Last updated on Sat Apr 13 2024 01:02:24 GMT+0100 (British Summer Time)

1 41604U 16040F 24103.59444474 .00011263 00000+0 31991-3 0 9995 2 41604 97.1295 133.9997 0007008 284.2966 75.7500 15.36318757434105
UTC large
Height (km)
Speed (km/s)
/
Latitude / Longitude
Inclination (degrees)
Orbital Period (minutes)
Azimuth
Elevation
Range (km)
Doppler Factor

Next 0 passes for location: London (51.5072 / 0.1276)

Sorry there are no passes over London.